User: anonymous   Login
Location: Muenchen
(48.1800°N, 11.5800°E)
Time: 14:05:48
(UTC+02:00)
Language:

Cosmos 2233 Rocket - Orbit

View from above orbital plane
View from above orbital plane
View from above satellite
View from above satellite

Ground track
Ground track

The orbit data is extracted from the following two-line orbital elements,

1 22488U 93008B   17085.78533069 +.00000105 +00000-0 +89515-4 0  9994
2 22488 082.9424 139.7702 0026968 096.1113 041.0872 13.77708590212628
Epoch (UTC): 26 March 2017 18:50:52
Eccentricity: 0.0026968
inclination: 82.9424°
perigee height: 952 km
apogee height: 992 km
right ascension of ascending node: 139.7702°
argument of perigee: 96.1113°
revolutions per day: 13.77708590
mean anomaly at epoch: 41.0872°
orbit number at epoch: 21262

The dashed part of the orbit path shows where the satellite is in the earth's shadow,  

DLR